User: anonymous   Login
Location: Alta
(39.2070°N, 120.8111°W)
Time: 09:03:47
(UTC+00:00)
Language:

CZ-4B DEB - Orbit

View from above orbital plane
View from above orbital plane
View from above satellite
View from above satellite

Ground track
Ground track

The orbit data is extracted from the following two-line orbital elements,

1 27433U 02024D   23333.69044713  .00000972  00000-0  54292-3 0  9998
2 27433  99.0363   1.9893 0013690 253.5112 106.4556 14.13228521109847
Epoch (UTC): 29 November 2023 16:34:14
Eccentricity: 0.0013690
inclination: 99.0363°
perigee height: 838 km
apogee height: 858 km
right ascension of ascending node: 1.9893°
argument of perigee: 253.5112°
revolutions per day: 14.13228521
mean anomaly at epoch: 106.4556°
orbit number at epoch: 10984

The dashed part of the orbit path shows where the satellite is in the earth's shadow,  

DLR